Flag for Russia Weather past 2 weeks in Bryansk, Russia

Now
75 °F

Partly sunny.


Feels Like: 77 °F
Forecast: 59 / 67 °F
Wind: 10 mph from North

Location: Brjansk

Current Time: May 28, 2015 at 5:43:27 PM

Latest Report: May 28, 2015 at 5:00 PM


Visibility: N/A

Pressure: 29.65 "Hg

Humidity: 65%

Dew point: 63 °F

Location of BryanskLocation

Historic Weather in Bryansk — Graph

°F

Bryansk temperature yesterday

Maximum temperature yesterday: 81 °F (at 2:00 PM)
Minimum temperature yesterday: 59 °F (at 4:00 AM)
Average temperature yesterday: 68 °F

Past Weeks' High & Low Weather Summary

 TemperatureHumidityPressure
High84 °F (May 26, 2:00 PM)100% (May 15, 7:00 AM)30.12 "Hg (May 15, 7:00 AM)
Low39 °F (May 19, 3:00 AM)27% (May 26, 2:00 PM)29.45 "Hg (May 15, 12:00 PM)
Average62 °F61%29.84 "Hg
* Reported May 13 4:00 PM — May 28 4:30 PM, Bryansk, Weather by CustomWeather, © 2015

Note: Actual official high and low records may vary slightly from our data, if they occured in-between our weather recording intervals... More about our weather records

Advertising

Bryansk weather history for previous 24 hours

 ConditionsComfort  
Time TempWeatherWind HumidityBarometerVisibility
4:30 PM
Thu, May 28
77 °FPartly sunny.6 mph54%29.65 "HgN/A
4:00 PM75 °FPartly sunny.3 mph61%29.65 "HgN/A
3:00 PM75 °FPartly sunny.1 mph57%29.65 "HgN/A
2:00 PM75 °FPartly sunny.3 mph57%29.65 "HgN/A
1:00 PM75 °FPartly sunny.3 mph61%29.68 "HgN/A
12:00 PM73 °FPartly sunny.3 mph65%29.68 "HgN/A
11:00 AM73 °FScattered clouds.3 mph69%29.68 "HgN/A
10:00 AM70 °FScattered clouds.1 mph69%29.68 "HgN/A
9:00 AM68 °FSunny.1 mph73%29.68 "Hg10 mi
8:00 AM64 °FPassing clouds.3 mph78%29.68 "HgN/A
7:00 AM63 °FSunny.3 mph83%29.65 "Hg10 mi
6:00 AM57 °FSunny.3 mph94%29.65 "Hg10 mi
5:00 AM54 °FClear.3 mph100%29.68 "Hg10 mi
4:00 AM55 °FClear.3 mph94%29.68 "Hg10 mi
3:00 AM55 °FClear.No wind94%29.68 "Hg10 mi
2:00 AM57 °FClear.3 mph88%29.68 "Hg10 mi
1:00 AM57 °FClear.3 mph94%29.68 "Hg10 mi
12:00 AM57 °FClear.1 mph88%29.68 "Hg10 mi
11:00 PM
Wed, May 27
59 °FClear.3 mph88%29.68 "Hg10 mi
10:00 PM59 °FClear.6 mph88%29.68 "Hg10 mi
9:00 PM63 °FSunny.6 mph77%29.71 "Hg10 mi
8:00 PM64 °FPartly sunny.6 mph78%29.68 "HgN/A
7:00 PM64 °FPartly sunny.6 mph78%29.68 "HgN/A
6:00 PMN/AThunderstorms.6 mphN/AN/AN/A
5:00 PM77 °FThunderstorms. Partly sunny.3 mph47%29.65 "HgN/A
Weather by CustomWeather, © 2015

See weather overviewHow to use our weather pages